Location: ????? ???????
(25.7275°N, 32.5929°E)
Time: 12:00:46
(UTC+00:00)

Meteor 2-12 Rocket - Pass Details

Date: 02 March 2021
Orbit: 936 x 957 km, 82.5° (Epoch: 16 April)

Event Time Altitude Azimuth Distance (km) Brightness Sun altitude
Rises 16:42:34 0° 183° (S) 3,578 7.5 -12.2°
Reaches altitude 10° 16:45:02 10° 183° (S) 2,638 6.8 -12.7°
Maximum altitude 16:51:04 88° 97° (E) 943 4.4 -14.1°
Drops below altitude 10° 16:57:09 10° 6° (N) 2,658 6.7 -15.5°
Sets 16:59:39 0° 6° (N) 3,608 7.4 -16.0°
